Regional Weather Roundup
Issued by NWS New Orleans/Baton Rouge, LA

Home | Current Version | Previous Version | Text Only | Print | Product List | Glossary On
Versions: 1 2 3 4 5 6 7 8 9 10 11 12 13 14 15 16 17 18 19 20 21 22 23 24 25 26 27 28 29 30 31 32 33 34 35 36 37 38 39 40 41 42 43 44 45 46 47 48 49 50
412
ASUS44 KLIX 171607
RWRLIX
NEW ORLEANS REGIONAL WEATHER ROUNDUP
NATIONAL WEATHER SERVICE NEW ORLEANS LA
1100 AM CDT FRI APR 17 2015

NOTE: "FAIR" INDICATES FEW OR NO CLOUDS BELOW 12,000 FEET WITH NO
      SIGNIFICANT WEATHER AND/OR OBSTRUCTIONS TO VISIBILITY.
      SKY/WX - SKY CONDITION AND SIGNIFICANT WEATHER.
      TMP - AIR TEMPERATURE.     DP    - DEWPOINT TEMPERATURE.
      RH  - RELATIVE HUMIDITY.   PRES  - PRESSURE.
      HI  - HEAT INDEX.          WCI   - WIND CHILL INDEX.

*  THESE STATIONS ARE NOT NWS OR FAA STATIONS AND ARE NOT UNDER
   NWS QUALITY CONTROL.

LAZ038-040-048-061>063-065>067-069-171700-
SOUTHEAST LOUISIANA

CITY           SKY/WX    TMP DP  RH WIND       PRES   REMARKS
N.O. AUDUBON     N/A     75  72  90 MISG        N/A
N.O. INTL ARPT CLOUDY    76  69  79 S7        30.01R
N.O. LAKEFRONT CLOUDY    78  69  73 S9        30.01S
SLIDELL        PTSUNNY   77  71  82 S10       30.01R
BATON ROUGE    PTSUNNY   77  69  76 SE8       29.99S
BOOTHVILLE     CLOUDY    74  71  91 S18       30.01R
BELLE CHASSE   LGT RAIN  74  69  85 S9        30.00R
BOGALUSA*        N/A     77  69  74 E3        30.03R
GALLIANO*      CLOUDY    76  72  86 CALM      30.00S
NEW ROADS*     PTSUNNY   76  69  77 CALM      30.01R
GONZALES*      PTSUNNY   76  71  85 SE7       29.99F
HAMMOND*       PTSUNNY   77  68  73 SE8       30.02R
HOUMA*         CLOUDY    73  70  88 E5        30.00R
PORT FOURCHON* SUNNY     73  72  94 S13       30.02R

$$

MSZ070-080>082-171700-
SOUTHERN MISSISSIPPI

CITY           SKY/WX    TMP DP  RH WIND       PRES   REMARKS
MCCOMB         CLOUDY    74  69  85 SE7       30.02S
GULFPORT       CLOUDY    74  70  87 S6        30.01R
BILOXI         CLOUDY    73  72  94 S7        30.01R
PASCAGOULA     CLOUDY    73  69  87 S7        30.02R
STENNIS ARPT*  CLOUDY    73  68  83 MISG      30.01R

$$

COASTAL OBSERVATIONS
LAKE AND NEARSHORE STATIONS

STATION/POSITION TIME  TEMP    WIND        PRES    WAVE
                       AIR SEA DIR/SP/G            HT/PER
                 (UTC) (F)     (DEG/KT/KT) (MB)    (FT/S)
PASCAGOULA       1500   74     140/  9/ 12 1015.7
WAVELAND YACHT   1500   73 73  150/ 10/ 12 1015.8
GRAND ISLE       1500   73 75  160/ 12/ 20 1014.7
SOUTHWEST PASS   1500   72 63  170/ 19/ 22 1016.4
NEW CANAL        1500   74     150/  4/  8 1016.1
SHELL BEACH      1500   73 74  160/ 12/ 15 1015.2

OFFSHORE STATIONS

STATION/POSITION TIME  TEMP    WIND        PRES    WAVE
                       AIR SEA DIR/SP/G            HT/PER
                 (UTC) (F)     (DEG/KT/KT) (MB)    (FT/S)
64 S DAUPHIN ISL 1550   75 75  180/ 27/ 33 1015.8    5/ 6

$$




USA.gov is the U.S. government's official web portal to all federal, state and local government web resources and services.